Hourly Data Report for September 25, 2017

All times are specified in Local Standard Time (LST). Add 1 hour to adjust for Daylight Saving Time where and when it is observed.

BAKER LAKE A
NUNAVUT

64°17'56.000" N
96°04'40.000" W
18.60 m
2300503
71926
YBK

Download Data

Hourly Data (September 2017)
Hourly Data Report for September 25, 2017
Temp Definition
°C
Dew Point Temp Definition
°C
Rel Hum Definition
%
Wind Dir Definition
10's deg

Wind Spd Definition
km/h
Visibility Definition
km
Stn Press Definition
kPa
Hmdx Definition


Wind Chill Definition


Weather Definition


TIME
00:00 Legend Double Dagger 0.4 -0.3 96 34 8 24.1 101.80     Clear
01:00 Legend Double Dagger -1.1 -1.9 95 33 5 24.1 101.79   -3 LegendNANA
02:00 Legend Double Dagger -2.9 -3.5 95 33 6 24.1 101.80   -5 LegendNANA
03:00 Legend Double Dagger -2.9 -3.6 95 34 12 24.1 101.78   -7 Clear
04:00 Legend Double Dagger -2.6 -3.2 96 32 12 24.1 101.78   -7 LegendNANA
05:00 Legend Double Dagger 0.1 -0.1 99 23 5 4.8 101.77     Fog
06:00 Legend Double Dagger -1.4 -1.6 98 34 4 0.8 101.75   -3 Freezing Fog
07:00 Legend Double Dagger -1.6 -1.8 98 31 5 0.2 101.74   -3 Freezing Fog
08:00 Legend Double Dagger -0.6 -0.8 99 29 3 0.2 101.74   -2 Freezing Fog
09:00 Legend Double Dagger 0.1 -0.1 99 14 4 1.2 101.73     Fog
10:00 Legend Double Dagger 2.3 0.8 90 13 4 32.2 101.70     LegendNANA
11:00 Legend Double Dagger 4.1 -0.6 71 12 10 32.2 101.67     LegendNANA
12:00 Legend Double Dagger 5.4 -0.1 68 14 17 32.2 101.64     Mostly Cloudy
13:00 Legend Double Dagger 5.8 -0.2 65 14 20 32.2 101.59     LegendNANA
14:00 Legend Double Dagger 6.6 -1.7 55 17 14 32.2 101.58     LegendNANA
15:00 Legend Double Dagger 6.9 -0.5 59 15 16 32.2 101.57     Mostly Cloudy
16:00 Legend Double Dagger 6.4 -0.5 61 14 16 32.2 101.53     LegendNANA
17:00 Legend Double Dagger 5.9 0.8 70 12 12 32.2 101.52     LegendNANA
18:00 Legend Double Dagger 5.7 1.9 76 14 16 32.2 101.49     Mostly Cloudy
19:00 Legend Double Dagger 5.5 2.5 81 14 13 32.2 101.46     LegendNANA
20:00 Legend Double Dagger 5.6 2.2 79 16 17 24.1 101.44     LegendNANA
21:00 Legend Double Dagger 5.2 2.1 80 16 19 24.1 101.40     Cloudy
22:00 Legend Double Dagger 4.9 1.6 80 17 21 24.1 101.36     LegendNANA
23:00 Legend Double Dagger 4.7 1.3 78 36 3 24.1 101.36     LegendNANA

Notes on Data Quality.

Legend

  • E = Estimated
  • M = Missing
  • NA = Not Available
  • ‡ = Partner data that is not subject to review by the National Climate Archives
Date modified: